[[{"header":{"parameterUnit":"m.s-1","parameterCategory":1,"la1":30.2991,"la2":30.254,"lo1":-89.0895,"lo2":-89.0444,"dy":0.0017,"dx":0.0017,"nx":28,"ny":28,"refTime":"2025-09-10T21:00:00:Z","depth":0,"parameterNumber":2,"parameterNumberName":"U-component_of_WINDS"},"data":[0,0,0,0,0,0,0,0,0,0,0,0,0,0,0,0,0,0,0,0,0,0,0,0,0,0,0,0,0,0,0,0,0,0,0,0,0,0,0,0,0,0,0,0,0,0,0,0,0,0,0,0,0,0,0,0,0,0,-1.4028,-1.4027,0,-1.3976,-1.3975,-1.3975,-1.3892,-1.3891,-1.3889,-1.3888,-1.3835,-1.3835,-1.3835,0,0,0,0,0,0,0,0,0,0,0,0,0,-1.4058,-1.4058,-1.4028,-1.4027,-1.4027,-1.3976,-1.3975,-1.3975,-1.3893,-1.3891,-1.3889,-1.3887,-1.3835,-1.3835,-1.3835,0,0,0,0,0,0,0,0,0,0,0,0,0,-1.403,-1.4058,-1.4028,-1.398,-1.3975,-1.3976,-1.3975,-1.3974,-1.3893,-1.3891,-1.3889,-1.3887,-1.3835,-1.3835,-1.3835,-1.388,0,0,-1.3835,-1.3835,0,0,0,0,0,0,0,0,-1.4031,-1.4029,-1.3987,-1.3983,-1.3978,-1.3938,-1.3966,-1.3943,-1.3894,-1.3924,-1.3888,-1.3885,-1.3871,-1.3868,-1.3863,-1.3877,-1.3875,-1.3835,-1.3835,-1.3835,-1.3835,0,0,0,0,0,0,0,-1.4033,-1.403,-1.4007,-1.3987,-1.3981,-1.3961,-1.3955,-1.3962,-1.3911,-1.3921,-1.3915,-1.391,-1.3868,-1.3864,-1.3862,-1.3874,-1.3835,-1.3835,-1.3835,-1.3835,-1.3924,-1.3926,0,0,0,0,0,0,-1.4042,-1.4033,-1.4009,-1.4006,-1.4,-1.3962,-1.3955,-1.3953,-1.3911,-1.3902,-1.3912,-1.3907,-1.3865,-1.3862,-1.3859,-1.3909,-1.3835,-1.3835,-1.3835,-1.3921,-1.3924,-1.3927,0,0,0,0,0,0,-1.4043,-1.4041,-1.4011,-1.4018,-1.4012,-1.3964,-1.3963,-1.3953,-1.3949,-1.3904,-1.3894,-1.3917,-1.3863,-1.3859,-1.3876,-1.3907,-1.3835,-1.3835,-1.3918,-1.3922,-1.3925,-1.401,0,0,0,0,0,0,-1.4045,-1.4042,-1.4058,-1.4018,-1.4012,-1.4028,-1.3965,-1.3954,-1.3949,-1.3941,-1.3905,-1.3897,-1.3861,-1.3876,-1.3876,-1.3905,-1.3835,-1.3915,-1.392,-1.3924,-1.4004,-1.4016,-1.4026,0,0,0,0,0,-1.4046,-1.4083,-1.4059,-1.4057,-1.4031,-1.403,-1.4026,-1.3983,-1.3952,-1.3967,-1.3939,-1.3898,-1.3903,-1.3878,-1.3877,-1.3907,-1.3913,-1.3919,-1.3924,-1.3999,-1.4014,-1.4026,0,0,0,0,0,0,-1.4127,-1.4077,-1.405,-1.4075,-1.4058,-1.4016,-1.4034,-1.4,-1.399,-1.3984,-1.3931,-1.3924,-1.3947,-1.3928,-1.3902,-1.3949,-1.3902,-1.3908,-1.396,-1.3973,-1.3984,-1.3988,-1.3835,0,0,0,0,0,-1.4148,-1.4151,-1.4107,-1.4135,-1.4127,-1.4083,-1.4081,-1.4049,-1.4029,-1.4021,-1.3993,-1.3975,-1.3972,-1.3972,-1.3967,-1.4001,-1.3993,-1.4022,-1.4033,-1.4042,-1.4047,-1.4065,-1.4078,-1.3944,-1.3944,-1.3944,0,0,-1.4192,-1.4165,-1.417,-1.415,-1.4133,-1.4138,-1.4077,-1.4084,-1.4087,-1.4022,-1.4035,-1.4015,-1.3991,-1.4017,-1.4027,-1.4003,-1.4082,-1.4049,-1.4056,-1.4056,-1.4072,-1.4085,-1.4096,-1.3948,-1.3947,-1.3947,0,0,-1.4273,-1.4253,-1.4273,-1.4257,-1.4232,-1.4202,-1.4208,-1.4172,-1.4156,-1.4169,-1.412,-1.4124,-1.412,-1.4105,-1.4098,-1.4176,-1.4139,-1.4176,-1.4233,-1.4252,-1.4262,-1.4271,-1.43,-1.4311,-1.4181,-1.4182,-1.4182,0,-1.433,-1.4335,-1.4289,-1.4299,-1.4293,-1.4234,-1.4256,-1.4242,-1.4217,-1.4214,-1.4187,-1.4182,-1.4162,-1.4185,-1.4204,-1.4199,-1.4204,-1.418,-1.4264,-1.4273,-1.4281,-1.4308,-1.4319,-1.4186,-1.4186,-1.4185,-1.4185,0,-1.4407,-1.4411,-1.4431,-1.4408,-1.4404,-1.442,-1.4377,-1.4379,-1.4348,-1.4322,-1.4337,-1.4311,-1.4301,-1.4304,-1.4274,-1.4323,-1.4308,-1.4274,-1.4226,-1.4299,-1.4324,-1.4333,-1.4193,-1.4191,-1.419,-1.4189,0,0,-1.4537,-1.4489,-1.4497,-1.4487,-1.4455,-1.4458,-1.4472,-1.4462,-1.4465,-1.445,-1.4461,-1.446,-1.4428,-1.442,-1.4388,-1.4404,-1.447,-1.4368,-1.4366,-1.4388,-1.4523,-1.455,-1.4562,-1.4445,-1.4447,-1.4448,-1.4525,0,-1.4612,-1.4633,-1.4593,-1.4624,-1.4628,-1.4573,-1.4586,-1.4568,-1.4545,-1.4545,-1.4519,-1.452,-1.4477,-1.4472,-1.4486,-1.4459,-1.4496,-1.4453,-1.4456,-1.4456,-1.4463,-1.4575,-1.4603,-1.4677,-1.4535,-1.4536,-1.4537,0,-1.4702,-1.4692,-1.4724,-1.4691,-1.4692,-1.4704,-1.4692,-1.4693,-1.4673,-1.4655,-1.4646,-1.4609,-1.4622,-1.4576,-1.4593,-1.4565,-1.4564,-1.4551,-1.4553,-1.4552,-1.4501,-1.4577,-1.4699,-1.471,-1.4552,-1.4551,-1.455,0,-1.4795,-1.4789,-1.4807,-1.48,-1.4763,-1.4773,-1.4758,-1.4735,-1.4732,-1.4723,-1.472,-1.4712,-1.4708,-1.4703,-1.4666,-1.4636,-1.4688,-1.4639,-1.4674,-1.4675,-1.4687,-1.4687,-1.4811,-1.4687,-1.4687,-1.4686,-1.4686,0,-1.4883,-1.4905,-1.4849,-1.486,-1.4883,-1.4837,-1.4862,-1.4841,-1.4822,-1.4829,-1.4782,-1.479,-1.4739,-1.4742,-1.4713,-1.4733,-1.4731,-1.4717,-1.4709,-1.4722,-1.4723,-1.472,-1.4714,-1.4689,-1.4689,-1.4688,-1.4688,0,-1.499,-1.4954,-1.497,-1.4934,-1.4926,-1.4944,-1.4914,-1.4923,-1.4897,-1.4907,-1.4907,-1.4866,-1.4867,-1.483,-1.4823,-1.4803,-1.4836,-1.4818,-1.4843,-1.4837,-1.4875,-1.4873,-1.5002,-1.5017,-1.4883,-1.4884,-1.4885,0,-1.5049,-1.5065,-1.5031,-1.5032,-1.5019,-1.5022,-1.5019,-1.4975,-1.4974,-1.4953,-1.4966,-1.4963,-1.4958,-1.4963,-1.4933,-1.4928,-1.4911,-1.4957,-1.491,-1.4922,-1.4912,-1.4912,-1.4914,-1.4966,-1.4968,-1.4969,-1.4971,0,-1.5158,-1.5139,-1.5136,-1.5128,-1.5126,-1.5118,-1.5106,-1.511,-1.5062,-1.5064,-1.5064,-1.5061,-1.5055,-1.5053,-1.5043,-1.5028,-1.4992,-1.4986,-1.4994,-1.5007,-1.502,-1.5014,-1.487,-1.4983,-1.4982,-1.4981,-1.498,-1.4979,-1.5243,-1.5254,-1.5233,-1.5232,-1.5219,-1.5209,-1.5217,-1.5193,-1.5192,-1.5183,-1.5158,-1.5163,-1.5144,-1.5127,-1.5116,-1.512,-1.5097,-1.5109,-1.5111,-1.5115,-1.5123,-1.502,-1.5118,-1.5117,-1.5117,-1.5117,-1.5116,0,-1.5349,-1.5333,-1.5333,-1.5318,-1.5318,-1.5284,-1.527,-1.5273,-1.5278,-1.5263,-1.526,-1.5261,-1.526,-1.5231,-1.5226,-1.5235,-1.5219,-1.5236,-1.5235,-1.5232,-1.5143,-1.5136,-1.5249,-1.5249,-1.5249,-1.5249,-1.5249,-1.5249,-1.5405,-1.5423,-1.5403,-1.5415,-1.5398,-1.5403,-1.5398,-1.539,-1.5378,-1.5382,-1.538,-1.5361,-1.5341,-1.5335,-1.5333,-1.5324,-1.5325,-1.5348,-1.5334,-1.5251,-1.5238,-1.5226,-1.522,-1.5348,-1.5348,-1.5423,-1.5424,-1.5424]},{"header":{"parameterUnit":"m.s-1","parameterCategory":1,"la1":30.2991,"la2":30.254,"lo1":-89.0895,"lo2":-89.0444,"dy":0.0017,"dx":0.0017,"nx":28,"ny":28,"refTime":"2025-09-10T21:00:00:Z","depth":0,"parameterNumber":3,"parameterNumberName":"V-component_of_WINDS"},"data":[0,0,0,0,0,0,0,0,0,0,0,0,0,0,0,0,0,0,0,0,0,0,0,0,0,0,0,0,0,0,0,0,0,0,0,0,0,0,0,0,0,0,0,0,0,0,0,0,0,0,0,0,0,0,0,0,0,0,2.6141,2.6141,0,2.6124,2.6124,2.6124,2.6117,2.6117,2.6117,2.6117,2.6096,2.6095,2.6094,0,0,0,0,0,0,0,0,0,0,0,0,0,2.6165,2.6164,2.6141,2.6141,2.6141,2.6124,2.6124,2.6124,2.6117,2.6117,2.6117,2.6117,2.6096,2.6095,2.6094,0,0,0,0,0,0,0,0,0,0,0,0,0,2.6152,2.6164,2.6141,2.6135,2.6135,2.6124,2.6124,2.6124,2.6117,2.6117,2.6117,2.6117,2.6096,2.6095,2.6094,2.6087,0,0,2.6092,2.6091,0,0,0,0,0,0,0,0,2.6152,2.6151,2.6136,2.6136,2.6135,2.6123,2.6125,2.6111,2.6117,2.6123,2.6117,2.6117,2.6104,2.6103,2.6099,2.6086,2.6085,2.6091,2.6091,2.6091,2.609,0,0,0,0,0,0,0,2.6153,2.6152,2.6134,2.6136,2.6135,2.6133,2.6131,2.6122,2.6114,2.6123,2.6122,2.6121,2.6104,2.61,2.6099,2.6085,2.6091,2.6091,2.609,2.609,2.6066,2.6066,0,0,0,0,0,0,2.6156,2.6152,2.6135,2.6134,2.6144,2.6132,2.613,2.6126,2.6114,2.6112,2.6121,2.612,2.6102,2.61,2.6098,2.6089,2.6091,2.609,2.6089,2.6066,2.6066,2.6066,0,0,0,0,0,0,2.6156,2.6154,2.6135,2.6143,2.614,2.6132,2.6128,2.6126,2.6122,2.6112,2.611,2.6119,2.6102,2.6099,2.609,2.6088,2.6089,2.6088,2.6066,2.6066,2.6066,2.6072,0,0,0,0,0,0,2.6157,2.6154,2.6152,2.6143,2.614,2.6129,2.6127,2.6126,2.6121,2.6121,2.611,2.6108,2.6102,2.6092,2.609,2.6087,2.6088,2.6066,2.6066,2.6066,2.6071,2.6072,2.6072,0,0,0,0,0,2.6158,2.6154,2.6152,2.615,2.6137,2.6129,2.6127,2.6121,2.6121,2.6119,2.6112,2.6108,2.6089,2.6091,2.6088,2.6086,2.6066,2.6066,2.6066,2.6071,2.6072,2.6072,0,0,0,0,0,0,2.6161,2.6152,2.6151,2.6143,2.6137,2.6128,2.6124,2.6122,2.6114,2.6114,2.6106,2.6103,2.6095,2.6089,2.6092,2.6078,2.6077,2.6077,2.6082,2.6083,2.6083,2.6084,2.6087,0,0,0,0,0,2.6162,2.6157,2.6148,2.6143,2.614,2.6133,2.6129,2.6125,2.6118,2.6115,2.6108,2.61,2.6092,2.6087,2.6079,2.6071,2.6068,2.6068,2.6068,2.6068,2.6067,2.6063,2.6063,2.6065,2.6065,2.6065,0,0,2.6161,2.6156,2.6153,2.6143,2.6138,2.6132,2.613,2.6124,2.612,2.6113,2.6105,2.61,2.609,2.6082,2.6078,2.6077,2.6066,2.6068,2.6068,2.6067,2.6063,2.6062,2.6062,2.6065,2.6065,2.6065,0,0,2.6158,2.6153,2.6149,2.6144,2.6137,2.6132,2.6131,2.6122,2.6119,2.6111,2.6106,2.61,2.6087,2.6081,2.6076,2.6072,2.6068,2.6069,2.607,2.6066,2.6065,2.6065,2.6064,2.6063,2.6069,2.6069,2.6069,0,2.6158,2.6151,2.6146,2.6141,2.6137,2.6132,2.6127,2.6122,2.6112,2.6109,2.6109,2.6093,2.6086,2.6077,2.6076,2.6072,2.607,2.607,2.6066,2.6066,2.6065,2.6064,2.6063,2.6069,2.6069,2.6069,2.6069,0,2.6151,2.6146,2.6143,2.6135,2.6131,2.6125,2.6119,2.6115,2.6112,2.6108,2.6099,2.6092,2.6083,2.608,2.6076,2.607,2.607,2.6068,2.6066,2.6065,2.6064,2.6063,2.6069,2.6069,2.6069,2.6069,0,0,2.6149,2.614,2.6139,2.6135,2.6128,2.6123,2.6117,2.611,2.6107,2.61,2.6095,2.6085,2.6083,2.6078,2.6073,2.607,2.6067,2.6068,2.6068,2.6068,2.606,2.6061,2.6061,2.6065,2.6065,2.6065,2.6061,0,2.6145,2.6136,2.6132,2.6124,2.6119,2.6116,2.6111,2.6105,2.6101,2.6095,2.609,2.6083,2.6081,2.6078,2.6075,2.6068,2.6065,2.6069,2.6059,2.6059,2.6061,2.606,2.6061,2.6058,2.606,2.606,2.606,0,2.6138,2.6133,2.6125,2.6119,2.6117,2.6113,2.6106,2.6101,2.6094,2.6091,2.6086,2.6082,2.6076,2.6076,2.6066,2.6069,2.6065,2.6061,2.6061,2.6059,2.6059,2.6058,2.6056,2.6056,2.6059,2.6059,2.6059,0,2.6137,2.6128,2.6123,2.612,2.6112,2.611,2.6106,2.61,2.6096,2.609,2.6087,2.608,2.6076,2.607,2.6064,2.6065,2.6055,2.6054,2.6052,2.6052,2.605,2.605,2.6047,2.6048,2.6048,2.6048,2.6048,0,2.6133,2.6128,2.6123,2.6119,2.6114,2.6109,2.6104,2.61,2.6095,2.609,2.6086,2.6081,2.6074,2.6068,2.6064,2.6057,2.6055,2.6052,2.605,2.6052,2.6052,2.6049,2.6049,2.6048,2.6048,2.6048,2.6048,0,2.613,2.6127,2.612,2.6114,2.6113,2.6109,2.6103,2.6099,2.6095,2.6089,2.6088,2.6081,2.6074,2.6068,2.6059,2.6056,2.6049,2.6047,2.6051,2.605,2.6048,2.6049,2.6043,2.6042,2.6044,2.6044,2.6044,0,2.6127,2.6124,2.6118,2.6115,2.6112,2.6107,2.6104,2.61,2.6096,2.6089,2.6086,2.6079,2.6074,2.6063,2.6057,2.6049,2.6048,2.6046,2.6046,2.6048,2.6047,2.6048,2.6047,2.6046,2.6046,2.6046,2.6046,0,2.6123,2.6122,2.6117,2.6112,2.6109,2.6104,2.61,2.6097,2.6092,2.6088,2.6082,2.6078,2.6069,2.6062,2.6055,2.605,2.6047,2.6046,2.6045,2.6046,2.6049,2.6048,2.6051,2.6046,2.6046,2.6046,2.6046,2.6046,2.612,2.6117,2.6113,2.6108,2.6105,2.6101,2.6097,2.6094,2.6089,2.6082,2.608,2.6073,2.6067,2.6057,2.6053,2.6047,2.6047,2.6045,2.6045,2.6044,2.6045,2.6051,2.6046,2.6046,2.6046,2.6046,2.6046,0,2.6115,2.6113,2.6109,2.6103,2.6099,2.6098,2.6094,2.609,2.6085,2.608,2.6076,2.6069,2.6062,2.6056,2.605,2.6046,2.6045,2.6045,2.6045,2.6044,2.6046,2.6047,2.6046,2.6046,2.6046,2.6046,2.6046,2.6046,2.6112,2.6107,2.6106,2.6099,2.6096,2.6091,2.6088,2.6085,2.6081,2.6074,2.6069,2.6066,2.606,2.6053,2.6048,2.6046,2.6043,2.6044,2.6042,2.6043,2.6043,2.6043,2.6045,2.6043,2.6043,2.604,2.604,2.604]}]]